EHI
0 0 0 0 0 0 0 0 0 0 0 0 0 0 0 0 0 0 0 0 0 0 0 0 0 0 0 0 0 0 0 0 0 0 0 0 0 0
0 0 0 0 0 0 0 0 0 0 0 0 0 0 0 0 0 0 0 0 0 0 0 0 0 0 0 0 0 0 0 0 0 0 0 0 0 0
0 0 0 0 0 0 0 0 0 0 0 0 0 0 0 0 0 0 0 0 0 0 0 0 0 0 0 0 0 0 0 0 0 0 0 0 0 0
0 0 0 0 0 0 0 0 0 0 0 0 0 0 0 0 0 0 0 0 0 0 0 0 0 0 0 0 0 0 0 0 0 0 0 0 0 0
0 0 0 0 0 0 0 0 0 0 0 0 0 0 0 0 0 0 0 0 0 0 0 0 0 0 0 0 0 0 0 0 0 0 0 0 0 0
0 0 0 0 0 0 0 0 0 0 0 0 0 0 0 0 0 0 0 0 0 0 0 0 0 0 0 0 0 0 0 0 0 0 0 0 0 0
0 0 0 0 0 0 0 0 0 0 0 0 0 0 0 0 0 0 0 0 0 0 0 0 0 0 0 0 0 0 0 0 0 0 0 0 0 0
0 0 0 0 0 0 0 0 0 0 0 0 0 0 0 0 0 0 0 0 0 0 0 0 0 0 0 0 0 0 0 0 0 0 0 0 0 0
0 0 0 0 0 0 0 0 0 0 0 0 0 0 0 0 0 0 0 0 0 0 0 0 0 0 0 0 0 0 0 0 0 0 0 0 0 0
0 0 0 0 0 0 0 0 0 0 0 0 0 0 0 0 0 0 0 0 0 0 0 0 0 0 0 0 0 0 0 0 0 0 0 0 0 0
0 0 0 0 0 0 0 0 0 0 0 0 0 0 0 0 0 0 0 0 0 0 0 0 0 0 0 0 0 0 0 0 0 0 0 0 0 0
0 0 0 0 0 0 0 0 0 0 0 0 0 0 0 0 0 0 0 0 0 0 0 0 0 0 0 0 0 0 0 0 0 0 0 0 0 0
0 0 0 0 0 0 0 0 0 0 0 0 0 0 0 0 0 0 0 0 0 0 0 0 0 0 0 0 0 0 0 0 0 0 0 0 0 0
0 0 0 0 0 0 0 0 0 0 0 0 0 0 0 0 0 0 0 0 0 0 0 0 0 0 0 0 0 0 0 0 0 0 0 0 0 0
0 0 0 0 0 0 0 0 0 0 0 0 0 0 0 0 0 0 0 0 0 0 0 0 0 0 0 0 0 0 0 0 0 0 0 0 0 0
0 0 0 0 0 0 0 0 0 0 0 0 0 0 0 0 0 0 0 0 0 0 0 0 0 0 0 0 0 0 0 0 0 0 0 0 0 0
0 0 0 0 0 0 0 0 0 0 0 0 0 0 0 0 0 0 0 0 0 0 0 0 0 0 0 0 0 0 0 0 0 0 0 0 0 0
0 0 0 0 0 0 0 0 0 0 0 0 0 0 0 0 0 0 0 0 0 0 0 0 0 0 0 0 0 0 0 0 0 0 0 0 0 0
0 0 0 0 0 0 0 0 0 0 0 0 0 0 0 0 0 0 0 0 0 0 0 0 0 0 0 0 0 0 0 0 0 0 0 0 0 0
0 0 0 0 0 0 0 0 0 0 0 0 0 0 0 0 0 0 0 0 0 0 0 0 0 0 0 0 0 0 0 0 0 0 0 0 0 0
0 0 0 0 0 0 0 0 0 0 0 0 0 0 0 0 0 0 0 0 0 0 0 0 0 0 0 0 0 0 0 0 0 0 0 0 0 0
0 0 0 0 0 0 0 0 0 0 0 0 0 0 0 0 0 0 0 0 0 0 0 0 0 0 0 0 0 0 0 0 0 0 0 0 0 0
0 0 0 0 0 0 0 0 0 0 0 0 0 0 0 0 0 0 0 0 0 0 0 0 0 0 0 0 0 0 0 0 0 0 0 0 0 0
Wind_Speed
3 4 3 3 3 4 4 4 4 4 4 4 3 3 3 3 5 4 5 7 8 7 8 8 8 8 9 9 10 10 10 10 11 11 12 12 13 14
3 3 3 3 3 3 4 4 4 4 4 3 4 4 3 4 5 4 5 8 8 9 8 8 8 8 9 9 9 10 10 11 12 12 12 13 13 14
3 3 4 4 3 3 3 3 4 4 5 4 3 3 3 4 4 4 4 5 5 9 9 9 9 9 9 9 9 9 10 11 12 12 13 13 13 14
4 4 4 3 4 3 2 3 3 4 4 5 4 3 4 4 4 4 4 4 4 7 9 9 9 9 10 10 10 9 9 10 11 12 12 12 13 13
3 4 4 4 4 3 3 3 3 3 3 4 4 3 3 3 3 4 5 4 4 5 6 8 8 9 10 10 10 10 10 10 10 10 10 11 11 12
4 4 4 4 4 4 4 4 3 3 3 3 3 3 3 3 2 3 4 3 4 4 4 5 6 7 8 9 10 10 10 10 10 9 9 9 9 9
4 4 4 4 4 4 4 4 3 3 3 3 3 3 3 3 3 3 4 4 4 3 3 3 3 4 5 7 8 9 10 10 10 10 9 9 9 9
4 5 5 4 5 6 6 6 5 4 4 4 4 5 6 5 4 3 3 3 4 2 2 4 3 4 5 5 6 8 9 10 10 10 10 10 9 9
4 4 4 4 5 5 6 6 5 5 6 5 5 6 6 5 4 5 4 4 5 3 2 4 4 5 5 5 8 9 9 10 10 11 11 11 10 10
3 4 4 5 5 5 5 5 5 5 5 4 5 7 6 5 5 5 5 5 5 4 3 4 4 4 5 4 7 9 10 10 11 11 11 11 11 11
4 3 4 4 6 6 3 4 5 5 5 5 6 7 7 7 5 3 3 3 4 4 3 3 3 4 4 4 4 6 8 9 10 10 11 12 11 10
4 4 4 5 6 5 3 3 5 6 6 6 5 5 4 4 4 5 4 4 3 3 3 3 3 2 3 3 2 2 3 6 8 9 10 10 10 7
3 4 4 7 7 6 4 3 5 6 5 5 5 5 4 4 3 3 4 4 5 4 3 3 3 2 3 3 2 2 2 3 3 4 7 10 11 10
3 3 4 7 7 7 5 6 7 5 3 4 4 4 4 5 5 4 4 5 6 6 5 4 3 3 3 3 3 2 2 2 2 3 3 5 8 9
2 4 6 7 6 5 7 8 6 4 4 4 4 4 4 5 5 4 4 4 4 4 4 5 4 3 3 4 3 3 2 2 3 3 3 4 4 5
3 5 6 6 5 5 6 6 5 4 4 4 5 4 4 4 4 4 3 4 4 3 3 3 4 4 4 5 4 4 3 3 2 3 3 3 3 5
3 3 4 5 6 5 5 5 5 5 5 5 5 5 5 4 4 4 3 3 3 4 4 3 2 3 4 4 4 4 4 3 3 3 2 3 3 4
4 3 4 4 5 5 6 6 5 6 6 5 5 5 6 5 5 4 4 3 4 4 4 4 3 2 1 2 3 4 3 3 2 3 3 3 3 3
4 4 4 4 5 5 5 5 5 6 5 5 5 6 6 6 5 5 5 4 4 4 4 4 3 2 2 3 2 1 2 2 1 2 3 3 3 3
4 4 4 4 4 5 5 5 5 5 5 5 5 6 6 6 6 6 5 5 5 4 4 4 3 3 2 3 3 3 2 2 2 2 2 2 2 1
4 4 4 4 4 4 4 5 5 5 6 6 6 6 6 6 6 6 6 6 5 4 4 4 5 5 3 1 1 2 2 1 1 2 2 2 2 1
4 4 4 5 5 5 5 5 5 5 6 6 6 6 6 6 6 7 6 6 5 5 5 4 4 3 2 1 2 2 3 3 2 1 1 1 2 2
4 4 4 5 5 5 5 6 6 5 6 6 6 6 6 6 6 5 6 5 5 6 5 5 4 3 3 2 2 2 3 3 2 2 2 3 1 1
Wind_Direction
256 252 249 251 239 233 230 225 231 260 271 264 259 255 252 250 255 255 256 261 260 261 261 261 258 254 250 247 242 238 231 226 225 227 228 226 226 226
261 262 264 260 255 244 235 230 226 234 256 255 255 271 273 271 263 257 256 261 259 260 260 259 255 250 247 243 238 237 231 226 224 225 226 226 226 226
291 281 282 279 277 266 246 236 229 222 248 269 260 272 268 273 280 273 264 257 257 258 258 255 253 247 244 241 239 236 228 224 223 224 226 226 226 225
294 295 293 293 291 274 256 252 244 229 233 264 273 270 264 268 270 273 275 266 260 262 258 253 250 245 238 236 236 234 227 223 221 221 222 224 224 224
286 288 289 290 291 287 270 266 259 248 233 247 269 268 265 268 275 279 281 275 268 265 261 253 250 248 240 235 233 230 227 223 218 215 217 219 220 219
288 283 284 277 278 287 284 274 266 264 258 257 269 279 272 273 264 278 290 284 279 280 274 267 256 251 246 239 233 228 224 221 215 209 207 208 211 212
303 297 289 288 286 283 280 274 266 261 265 263 266 273 274 275 269 267 276 288 281 261 271 271 263 256 252 244 235 227 221 219 214 207 205 205 207 211
307 311 304 300 304 298 289 278 258 248 253 257 260 262 266 265 266 263 268 281 279 242 255 279 267 262 257 246 239 229 223 219 216 211 209 206 206 209
304 307 313 318 318 312 307 300 289 269 245 245 260 261 261 260 263 263 259 261 263 261 263 278 271 268 264 250 235 232 229 225 220 215 212 210 210 210
297 299 308 316 324 324 319 318 309 298 275 255 255 263 263 265 255 259 262 271 269 253 231 260 269 270 272 260 240 234 230 226 223 219 215 213 212 211
328 331 332 333 337 344 340 325 321 319 306 289 278 278 277 273 264 262 257 259 274 267 219 236 256 268 271 263 253 238 233 225 221 220 218 213 211 209
343 347 354 353 349 0 360 342 329 324 328 327 323 319 309 292 260 232 234 245 261 265 224 222 246 257 272 263 263 259 241 229 221 219 215 213 205 203
344 347 352 358 3 5 6 352 321 316 320 322 321 326 328 322 306 274 245 233 241 248 231 217 245 243 247 270 278 261 242 233 219 221 217 211 202 198
343 345 350 358 1 3 4 353 345 345 342 340 334 331 330 327 319 305 284 262 248 251 249 232 238 236 243 252 261 262 250 231 219 221 219 203 202 203
351 354 352 353 357 1 359 0 0 0 355 346 335 325 318 312 314 313 311 298 280 262 250 241 237 239 235 240 246 244 251 245 223 219 212 201 194 187
0 356 359 6 11 4 360 4 5 359 351 337 326 317 318 324 326 327 322 326 321 309 290 275 250 237 240 238 232 240 234 226 221 217 211 207 203 198
1 12 18 13 9 5 1 360 360 0 358 351 340 334 331 332 331 330 325 324 320 319 321 320 286 251 242 237 234 233 232 231 223 214 204 216 221 210
39 23 12 6 2 358 354 353 355 357 352 346 345 343 339 336 334 333 330 328 323 323 325 323 323 313 278 253 228 232 234 233 228 212 205 209 227 220
40 19 10 360 356 355 353 352 350 347 345 346 344 341 339 337 337 337 338 336 334 332 332 330 326 314 302 308 321 245 239 246 220 219 218 217 231 231
24 11 3 356 354 353 352 348 345 346 347 344 342 340 341 340 340 339 337 336 332 332 334 339 339 329 295 290 302 316 293 250 231 228 229 229 244 233
8 3 359 355 353 352 348 344 343 343 344 342 341 341 341 340 340 337 335 331 330 330 330 328 322 317 305 292 303 326 340 339 228 231 222 214 227 217
357 354 352 354 353 350 346 344 344 346 346 345 342 340 339 340 340 338 338 337 334 330 325 323 329 339 3 1 339 332 335 350 12 35 282 247 230 221
352 352 354 354 354 350 347 347 348 348 347 343 340 340 341 341 340 339 339 339 338 339 341 341 344 346 351 345 338 336 337 340 354 15 15 7 302 264